Wind_Speed
12 12 12 12 13 13 13 13 13 13 12 10 10 10 10 11 11 11 11 11 10 10 10 9 9 9 9 9 9 10 10 10 11 11 11 11 11 11 12 12 12 13 13
12 12 11 12 12 13 13 13 14 13 12 11 10 10 10 11 11 11 12 12 11 11 10 10 9 9 10 10 11 12 11 12 12 12 13 12 12 12 12 12 13 13 13
12 11 11 11 12 12 13 14 14 14 13 11 11 10 11 11 12 12 12 12 12 11 11 11 10 10 10 11 11 12 13 13 13 14 14 13 13 13 12 13 14 14 14
10 10 11 11 12 12 13 14 14 14 13 12 11 11 11 11 12 13 13 12 12 12 12 12 11 10 11 11 11 12 13 13 14 14 14 14 14 14 14 14 15 15 15
10 10 10 11 12 13 14 14 14 14 13 12 12 12 12 13 13 13 12 12 12 12 12 12 12 11 12 11 11 12 13 14 15 15 15 15 15 16 16 16 17 17 17
11 10 10 11 13 13 14 14 14 14 13 13 13 13 13 13 14 13 12 12 13 13 13 13 13 12 12 11 12 12 13 14 14 15 15 15 16 17 17 18 18 18 19
10 10 11 12 13 13 14 14 14 14 14 14 13 13 13 13 13 13 12 13 13 14 14 13 13 13 13 13 13 13 14 14 14 15 15 15 16 17 17 18 19 19 20
10 11 12 12 13 14 15 14 14 14 14 14 14 14 14 13 13 13 13 14 14 15 15 14 13 13 12 13 13 14 14 14 15 15 16 17 17 18 18 18 19 19 20
11 12 12 12 13 14 15 15 15 15 14 14 15 15 15 15 15 15 16 15 15 16 16 14 14 14 13 13 14 14 14 14 15 15 16 17 17 18 19 19 19 19 20
14 15 14 14 14 15 15 15 15 15 15 15 15 15 16 16 16 16 17 17 16 16 16 15 15 15 15 15 15 16 16 15 15 16 17 18 19 19 19 19 20 20 21
16 16 15 15 15 15 15 15 16 16 15 15 15 16 16 17 17 17 17 17 17 17 17 16 16 16 16 16 16 16 16 16 17 17 18 19 20 20 20 21 21 22 22
16 16 16 15 14 15 15 16 17 17 16 16 16 16 17 18 18 18 18 18 18 18 18 18 17 17 17 18 18 18 18 18 18 19 20 20 20 21 22 22 23 23 24
17 17 16 16 16 16 16 17 17 17 17 17 17 17 18 18 18 19 19 19 19 18 19 19 19 19 19 19 19 19 19 20 20 20 21 21 21 22 23 24 24 25 25
18 17 17 17 17 17 17 18 18 18 18 18 18 19 19 19 20 20 20 20 20 20 20 20 21 21 21 21 21 21 21 21 21 21 22 22 22 23 24 25 25 26 26
18 18 19 19 19 19 19 19 19 19 19 19 20 20 20 20 21 21 22 22 22 21 21 21 22 22 22 22 21 21 22 22 22 22 23 24 24 24 25 26 26 26 26
19 20 21 21 21 21 21 21 20 20 20 20 20 21 22 22 22 22 22 23 22 22 22 22 22 23 23 22 22 22 22 22 22 23 23 24 25 25 26 27 27 27 27
20 21 21 21 22 22 22 21 20 21 21 21 21 22 23 23 23 23 23 23 23 23 23 23 23 23 23 23 23 23 23 23 23 23 23 24 25 26 26 27 28 27 27
22 22 21 21 22 22 22 22 22 22 23 23 23 23 23 23 23 24 24 24 24 24 24 23 24 24 24 24 24 24 24 23 23 24 24 25 25 26 26 26 26 26 26
22 22 22 22 23 23 23 23 23 23 24 24 24 24 24 24 24 24 24 24 24 24 24 24 25 25 26 26 25 25 23 24 24 25 25 26 26 26 26 26 26 26 26
22 23 23 23 24 24 24 24 24 25 25 24 24 24 24 25 25 25 25 25 25 24 25 25 25 26 26 25 25 25 24 24 25 26 26 27 27 27 27 27 27 27 27
23 24 24 25 25 24 24 24 25 25 24 24 25 25 25 25 26 25 25 25 25 25 25 25 26 26 26 25 25 25 25 25 25 26 26 27 27 27 27 27 26 26 26
25 25 25 25 25 24 24 24 24 24 24 25 26 26 26 26 26 25 25 25 25 25 25 26 26 26 25 25 25 25 25 25 25 26 26 26 27 26 26 26 26 26 26
25 26 25 25 25 25 25 25 24 24 25 26 26 26 26 26 26 25 25 25 25 25 25 26 26 26 25 25 25 25 25 24 25 24 24 25 25 25 25 25 25 25 25
25 25 25 25 25 24 25 25 25 25 25 26 26 26 26 25 25 25 24 24 25 25 25 26 26 25 25 25 25 24 24 23 23 23 24 25 25 25 26 25 24 24 23
25 25 25 25 25 25 26 26 26 26 26 26 26 26 26 26 25 25 25 25 25 24 24 24 24 24 25 25 24 24 23 24 24 25 25 26 27 26 25 24 24 23 23
25 25 25 25 25 25 25 25 26 26 27 27 27 27 27 26 26 26 25 24 24 25 25 25 24 24 25 25 25 25 25 25 25 26 26 26 26 25 24 23 23 22 22
Wind_Direction
3 2 3 2 1 1 2 0 357 353 350 346 346 344 343 343 341 337 333 330 327 324 322 315 306 295 287 280 275 275 275 273 267 265 264 265 266 263 263 261 262 263 263
360 358 359 357 355 356 356 355 353 351 349 345 340 342 342 341 337 336 336 334 327 326 323 316 307 298 291 285 278 276 274 272 270 268 266 265 267 268 271 268 267 267 266
359 355 354 355 355 353 351 351 352 351 350 345 340 342 342 338 335 336 337 334 332 331 328 322 311 302 295 288 281 278 275 274 273 269 266 265 266 269 270 270 270 270 269
354 350 347 348 350 350 349 349 349 350 350 348 347 344 340 335 335 335 334 333 333 332 329 323 315 308 304 295 285 281 279 276 275 271 268 265 265 267 267 269 270 271 270
354 347 343 344 344 345 345 346 346 344 344 343 342 341 340 338 336 336 335 336 335 332 328 323 319 314 308 301 290 285 282 279 277 274 270 269 267 268 268 270 271 271 271
354 352 345 343 341 339 340 342 343 343 342 340 340 338 336 334 336 340 340 338 336 334 330 324 316 314 310 305 298 290 288 281 277 275 272 271 270 270 269 270 269 269 270
347 344 344 342 337 335 336 337 339 339 339 339 337 336 333 332 335 337 336 334 333 332 330 326 320 313 306 302 299 292 294 289 280 275 274 275 276 274 272 271 270 268 268
336 339 338 338 336 334 333 333 334 335 335 335 335 336 335 333 333 332 330 328 327 325 324 322 319 316 311 304 299 296 294 290 286 281 278 277 278 278 277 274 272 271 271
324 332 333 332 331 328 330 332 332 332 331 331 331 331 329 329 330 330 329 326 324 324 323 319 315 314 312 307 303 300 295 292 289 288 283 281 280 281 280 278 276 275 275
324 327 328 328 325 324 325 327 329 327 326 326 326 327 327 325 325 325 323 323 323 324 321 317 316 316 314 311 307 303 297 292 290 289 288 286 281 281 279 279 277 276 276
320 323 323 323 323 325 322 320 322 323 322 322 323 322 322 323 321 319 319 318 319 318 316 313 312 312 312 309 306 306 302 299 294 291 290 289 286 282 280 280 280 279 278
316 319 320 319 324 326 321 316 317 318 317 317 316 316 317 318 318 316 315 315 315 315 315 312 310 310 309 306 305 304 302 299 296 294 292 289 289 286 283 282 282 281 280
312 315 317 319 317 320 320 315 314 314 314 314 314 314 314 315 314 314 313 311 311 311 311 310 308 308 308 306 305 302 303 302 297 295 294 291 288 288 286 284 283 282 281
310 311 315 316 314 316 318 318 313 311 311 312 312 312 311 310 309 310 310 309 309 308 307 308 307 306 307 306 305 302 303 301 298 295 293 292 291 289 288 287 285 284 283
306 307 310 310 311 312 316 317 314 309 306 306 306 307 308 308 308 308 307 307 309 308 308 308 307 307 306 306 306 304 301 300 297 296 294 292 291 290 288 287 286 285 283
305 306 307 307 308 309 310 312 311 310 306 304 303 305 307 307 308 308 307 307 306 306 307 307 308 307 308 308 306 304 302 300 298 296 295 294 292 291 290 288 286 284 282
303 306 304 305 306 306 306 307 308 308 308 310 310 311 311 311 310 310 308 307 306 306 305 306 306 307 308 307 306 303 301 300 298 297 297 296 295 293 291 290 287 284 283
303 308 306 304 305 305 306 306 307 306 306 309 311 312 311 310 310 309 308 308 307 306 305 304 304 305 306 305 303 303 301 300 300 300 299 298 296 295 293 292 289 287 285
304 306 305 303 303 303 303 304 304 303 304 307 309 310 310 310 310 309 308 307 306 306 304 304 304 304 305 305 305 303 301 300 300 301 300 299 297 296 295 293 291 289 287
301 303 302 302 302 302 303 303 304 304 304 304 307 307 307 307 307 308 307 306 305 305 304 304 304 304 304 304 304 303 301 301 301 301 301 299 298 297 296 294 292 291 289
301 301 300 300 300 301 302 304 305 305 305 305 305 305 305 306 306 306 305 305 305 305 305 304 304 304 303 303 303 302 302 301 300 301 302 302 301 300 298 296 295 293 291
297 298 299 300 300 300 301 303 304 305 305 306 306 305 306 306 307 307 305 305 304 303 303 304 304 304 303 303 301 301 302 302 301 301 302 303 302 300 300 299 298 296 294
297 297 297 298 299 300 300 301 303 304 305 307 307 307 306 306 306 307 306 307 306 306 306 306 306 305 304 303 301 301 302 302 303 302 302 305 304 303 303 302 301 299 296
297 297 297 297 297 298 300 301 301 302 305 307 307 306 306 306 306 306 306 306 306 307 306 307 307 307 306 304 303 302 302 303 304 306 306 306 307 306 305 303 301 299 297
295 295 296 296 296 296 298 299 300 302 305 307 308 307 306 304 304 306 306 305 305 306 307 308 307 306 306 306 305 304 305 304 304 305 306 306 305 305 304 303 302 299 297
292 293 293 294 296 296 297 298 300 302 304 306 308 308 306 304 304 304 304 304 305 307 307 307 308 307 307 307 306 306 306 305 304 304 304 304 303 303 302 301 303 301 297
Height
5909 5907 5905 5903 5901 5899 5897 5895 5893 5890 5888 5886 5884 5882 5881 5879 5877 5875 5874 5872 5870 5869 5867 5866 5865 5864 5863 5862 5862 5861 5861 5861 5861 5861 5861 5861 5861 5861 5860 5860 5860 5859 5859
5908 5907 5905 5903 5901 5898 5896 5894 5891 5889 5886 5884 5882 5881 5879 5878 5876 5874 5872 5870 5868 5866 5865 5863 5862 5861 5860 5859 5859 5858 5858 5858 5858 5858 5857 5857 5858 5858 5857 5856 5856 5856 5855
5907 5906 5904 5902 5900 5898 5896 5893 5890 5888 5885 5882 5880 5879 5878 5876 5874 5872 5870 5868 5866 5864 5863 5861 5860 5858 5857 5856 5855 5855 5855 5854 5854 5854 5854 5854 5854 5854 5854 5853 5853 5852 5851
5906 5905 5903 5901 5899 5897 5895 5892 5890 5887 5884 5882 5880 5878 5876 5875 5873 5871 5869 5866 5864 5862 5860 5859 5857 5855 5854 5853 5852 5852 5851 5851 5850 5850 5850 5849 5850 5850 5850 5849 5849 5848 5847
5905 5904 5902 5901 5898 5896 5894 5891 5889 5886 5884 5881 5879 5877 5875 5873 5871 5869 5866 5864 5862 5860 5858 5856 5854 5853 5851 5850 5849 5848 5847 5847 5846 5846 5845 5845 5845 5845 5845 5845 5844 5844 5843
5904 5902 5901 5899 5897 5894 5892 5890 5887 5885 5882 5880 5878 5876 5874 5871 5869 5867 5864 5862 5860 5858 5856 5854 5852 5850 5848 5847 5845 5844 5843 5842 5842 5841 5841 5841 5840 5840 5840 5840 5839 5839 5838
5902 5901 5899 5897 5895 5892 5890 5888 5886 5883 5881 5878 5876 5874 5872 5870 5867 5865 5863 5860 5858 5856 5854 5851 5849 5847 5845 5843 5842 5840 5839 5838 5837 5837 5836 5836 5835 5835 5834 5834 5834 5833 5832
5901 5899 5897 5895 5893 5890 5888 5886 5883 5881 5878 5876 5874 5872 5869 5867 5865 5863 5860 5858 5856 5853 5851 5848 5846 5844 5842 5840 5838 5837 5835 5834 5833 5832 5832 5831 5830 5830 5829 5828 5828 5827 5827
5898 5896 5894 5892 5890 5888 5886 5883 5881 5879 5876 5874 5871 5869 5867 5865 5863 5860 5858 5855 5853 5850 5847 5845 5843 5841 5838 5836 5834 5832 5831 5830 5828 5827 5827 5826 5825 5824 5823 5822 5822 5821 5820
5895 5893 5891 5889 5887 5885 5883 5881 5878 5876 5874 5871 5869 5866 5864 5862 5860 5857 5855 5852 5850 5847 5844 5842 5839 5837 5835 5832 5830 5829 5827 5825 5824 5823 5822 5821 5819 5818 5817 5816 5815 5814 5813
5891 5890 5888 5886 5883 5881 5879 5877 5875 5873 5871 5868 5866 5863 5861 5859 5856 5854 5851 5849 5846 5843 5841 5838 5836 5834 5831 5829 5826 5825 5823 5821 5819 5818 5816 5815 5813 5812 5811 5809 5808 5807 5806
5889 5887 5885 5883 5880 5878 5876 5874 5872 5870 5867 5865 5863 5860 5858 5855 5852 5850 5847 5844 5842 5839 5837 5834 5832 5829 5827 5824 5822 5820 5818 5816 5814 5812 5811 5809 5807 5806 5804 5803 5801 5799 5798
5886 5884 5881 5878 5877 5875 5873 5871 5868 5866 5863 5861 5859 5856 5854 5851 5848 5845 5842 5839 5837 5834 5832 5830 5827 5825 5822 5820 5817 5815 5813 5811 5809 5807 5805 5803 5801 5800 5798 5796 5794 5792 5791
5882 5880 5878 5876 5874 5872 5870 5868 5865 5862 5859 5857 5854 5852 5849 5847 5844 5841 5838 5835 5832 5830 5827 5825 5822 5820 5817 5815 5812 5810 5807 5805 5803 5801 5799 5797 5795 5793 5791 5789 5787 5785 5784
5878 5876 5874 5872 5870 5868 5866 5863 5861 5858 5855 5852 5849 5847 5845 5842 5839 5836 5833 5830 5828 5825 5822 5820 5817 5814 5812 5810 5807 5804 5802 5800 5797 5795 5792 5790 5788 5786 5784 5782 5780 5778 5776
5874 5872 5870 5868 5865 5863 5861 5859 5856 5853 5849 5846 5844 5842 5839 5836 5834 5831 5828 5825 5822 5820 5817 5814 5812 5809 5807 5804 5801 5798 5796 5794 5791 5789 5786 5783 5781 5778 5776 5774 5772 5770 5768
5870 5868 5865 5863 5861 5859 5856 5854 5851 5848 5845 5842 5839 5836 5834 5831 5828 5825 5822 5819 5817 5814 5811 5809 5806 5803 5801 5798 5795 5792 5790 5787 5785 5782 5779 5777 5774 5771 5768 5766 5764 5761 5759
5865 5863 5860 5858 5856 5853 5851 5849 5846 5843 5840 5836 5834 5831 5829 5826 5823 5820 5816 5813 5811 5808 5805 5803 5800 5797 5794 5792 5789 5786 5783 5780 5778 5775 5772 5769 5766 5763 5761 5758 5755 5753 5751
5859 5857 5855 5852 5850 5847 5845 5843 5841 5838 5835 5832 5829 5826 5823 5820 5817 5814 5811 5808 5805 5802 5799 5796 5793 5791 5788 5785 5782 5779 5776 5773 5770 5767 5764 5761 5759 5756 5753 5750 5747 5745 5742
5853 5851 5849 5847 5844 5842 5839 5837 5834 5831 5829 5826 5823 5820 5817 5814 5811 5808 5805 5802 5799 5796 5793 5790 5787 5784 5781 5778 5775 5772 5769 5766 5763 5760 5757 5754 5751 5747 5744 5742 5739 5736 5734
5847 5845 5843 5841 5839 5836 5833 5831 5828 5825 5823 5820 5817 5814 5811 5808 5805 5802 5799 5796 5792 5789 5787 5783 5780 5777 5774 5771 5768 5765 5762 5759 5756 5753 5749 5746 5743 5739 5736 5733 5730 5728 5725
5841 5839 5836 5834 5832 5829 5827 5825 5822 5819 5816 5813 5811 5807 5804 5801 5798 5795 5792 5789 5786 5782 5779 5776 5773 5770 5767 5763 5760 5757 5754 5751 5748 5745 5742 5738 5735 5731 5728 5725 5722 5719 5716
5835 5833 5830 5828 5826 5824 5821 5819 5816 5813 5810 5807 5804 5801 5798 5795 5792 5789 5786 5782 5779 5776 5773 5769 5766 5762 5759 5756 5753 5750 5747 5743 5740 5737 5734 5730 5726 5723 5720 5717 5713 5710 5708
5829 5826 5824 5821 5819 5817 5814 5812 5809 5807 5804 5800 5797 5794 5791 5788 5785 5782 5779 5776 5773 5769 5766 5763 5759 5756 5752 5749 5746 5742 5739 5736 5733 5730 5726 5722 5719 5715 5712 5709 5705 5702 5699
5822 5820 5818 5815 5813 5811 5807 5805 5802 5800 5797 5793 5790 5787 5784 5781 5778 5775 5772 5769 5766 5763 5759 5756 5752 5749 5746 5742 5739 5735 5732 5729 5726 5722 5719 5715 5711 5708 5705 5702 5698 5695 5691
5814 5812 5810 5808 5806 5803 5801 5798 5796 5793 5790 5787 5784 5781 5777 5774 5771 5768 5764 5761 5759 5756 5752 5749 5746 5742 5739 5735 5732 5728 5725 5722 5719 5715 5712 5708 5704 5701 5698 5694 5691 5687 5684